Regional Weather Roundup
Issued by NWS Cleveland, OH

Home | Current Version | Previous Version | Text Only | Print | Product List | Glossary Off
Versions: 1 2 3 4 5 6 7 8 9 10 11 12 13 14 15 16 17 18 19 20 21 22 23 24 25 26 27 28 29 30 31 32 33 34 35 36 37 38 39 40 41 42 43 44 45 46 47 48 49 50

231
ASUS41 KCLE 291310
RWRCLE
OHIO REGIONAL WEATHER ROUNDUP
NATIONAL WEATHER SERVICE WILMINGTON, OH
900 AM EDT MON MAY 29 2017

NOTE: "FAIR" INDICATES FEW OR NO CLOUDS BELOW 12,000 FEET WITH NO
SIGNIFICANT WEATHER AND/OR OBSTRUCTIONS TO VISIBILITY.

OHZ001>008-015>018-024>027-034-035-043-044-291400-
   NORTHWEST OHIO

CITY           SKY/WX    TMP DP  RH WIND       PRES   REMARKS
DEFIANCE       FAIR      62  58  86 S6        29.84F
FINDLAY        PTSUNNY   68  58  70 SW8       29.86S
TOLEDO EXPRESS PTSUNNY   63  59  87 SW7       29.84S
TOLEDO EXEC    FAIR      65  60  84 SW10      29.85S
LIMA           PTSUNNY   65  59  81 SW8       29.88S
$$

OHZ009>014-019>023-028>033-038-089-291400-
   NORTHEAST OHIO

CITY           SKY/WX    TMP DP  RH WIND       PRES   REMARKS
CLE-HOPKINS    FAIR      68  59  73 SW12      29.87R
CLE-LAKEFRONT  FAIR      67  57  70 SW14      29.85R
CUY CO. ARPT   MOSUNNY   68  57  68 SW12      29.85R
LORAIN-ELYRIA  FAIR      66  54  65 W12       29.86R
ASHTABULA      FAIR      65  59  81 W12       29.86R
AKRON-CANTON   FAIR      65  56  72 SW9       29.89R
WOOSTER        FAIR      65  58  78 W13       29.89R
MANSFIELD      FAIR      66  58  75 SW7       29.89S
YOUNGSTOWN     FAIR      64  57  78 SW14      29.87R
$$

OHZ042-051>053-060>062-070>072-077>081-291400-
  SOUTHWEST OHIO

CITY           SKY/WX    TMP DP  RH WIND       PRES   REMARKS
CINC-COVINGTON FAIR      66  63  90 SW8       29.93F
CINC-LUNKEN    FAIR      67  65  93 S5        29.93F
HAMILTON       FAIR      68  65  90 VRB5      29.93S
DAYTON         FAIR      66  60  81 SW7       29.91F
WRIGHT-PAT AFB SUNNY     66  64  93 SW6       29.91S
DAYTON GENERAL FAIR      66  61  84 SW6       29.91F
WILMINGTON     FAIR      67  63  87 SW8       29.93R
$$

OHZ036-037-039>041-045>050-054>059-063>069-073>076-082>088-291400-
  CENTRAL AND SOUTHEAST OHIO

CITY           SKY/WX    TMP DP  RH WIND       PRES   REMARKS
COLUMBUS       FAIR      68  61  78 W8        29.91S
OSU AIRPORT    FAIR      67  62  84 W8        29.91S
BOLTON FIELD   SUNNY     68  61  77 W3        29.92S
RICKENBACK AFB FAIR      67  61  81 W8        29.91S
NEWARK         FAIR      69  60  73 W9        29.90F
MARION         FAIR      67  58  72 SW9       29.90S
LANCASTER      FAIR      70  61  73 W7        29.92S
ZANESVILLE     FAIR      67  62  84 W7        29.92R
NEW PHILLY     FAIR      67  58  72 W6        29.90R
$$




USA.gov is the U.S. government's official web portal to all federal, state and local government web resources and services.